Weather in Ushkaloy

Russia / Chechen Republic     42°46′51″N   45°36′44″E
temp.,
°C
wind,
m/s
gust,
m/s
humid.,
%
clouds,
%
prec.,
mm/h
press.,
hPa
HPBL,
m
13 april, tue
tue1300:00+3ne118736 0.0 102146
03:00+2ne119452 0.0 1022113
06:00+2e118850 0.0 1021196
09:00+9ne23578 0.0 1017681
12:00+9nne336443 0.1 1017615
15:00+6nne3283100 0.4 1018491
18:00+4ne1193100 0.3 1019273
21:00+3wsw1297100 8.1 1020224
14 april, wed
wed1400:00+3s239365 10.6 101899
03:00+3sw119543 13.6 101616
06:00+1sw119198 0.4 101718
09:00+3nne2297100 0.8 1016374
12:00+2nne2299100 1.5 1017317
15:00+1wnw1299100 10.1 1019115
18:00+2ssw1297100 2.6 1019112
21:000ssw328867 2.6 102025
15 april, thu
thu1500:00−1ssw328091 0.0 102030
03:00−2ssw32803 0.0 102130
06:00−1ssw32775 0.0 102140
09:00+7n11670 0.0 1016487
12:00+9n22595 0.0 10151456
15:00+9n226344 0.9 10151093
18:00+6ne118530 1.8 1017100
21:00+3ssw228632 1.8 102026
16 april, fri
fri1600:00+1ssw328199 0.0 102030
03:00+2ssw327851 0.0 101927
06:00+2ssw2278100 0.0 101932
09:00+8ne116236 0.0 1017884
12:00+11nne125693 0.3 10151043
15:00+10ne116045 1.2 10151122
18:00+8sse12748 0.3 1016117
21:00+4ssw33760 0.4 101858
17 april, sat
sat1700:00+3ssw337714 0.0 102051
03:00+3ssw337621 0.0 101954
06:00+4sw2273100 0.0 101937
09:00+7nne327398 0.0 1019703
12:00+5nne2295100 0.3 1020420
15:00+5ne2196100 0.5 1020323
18:00+4nne2199100 0.1 1021228
21:00+4ese1197100 0.1 1020108